Location: Bremen
(53.0830°N, 8.8000°E)
Time: 18:50:17
(UTC+02:00)

X-37B - Pass Details

Date: 06 August 2021
Orbit: 381 x 393 km, 45.0° (Epoch: 29 August)

Event Time Altitude Azimuth Distance (km) Brightness Sun altitude
Exits shadow 03:56:52 13° 159° (SSE) 1,255 2.8 -13.5°
Drops below altitude 10° 03:58:14 10° 133° (SE) 1,397 3.3 -13.4°
Sets 04:01:11 0° 103° (ESE) 2,252 4.8 -13.1°
